DECAYED

NOAA 17 DEB, 49482 (Decayed)

Orbit data source: Space-Track

NOAA 17 DEB, 49482 was space debris in SSO originally from a launch on Mon, 24 Jun 2002 UTC launched from the Air Force Western Test Range (AFWTR). Debris objects in space refer to the collection of defunct objects orbiting the Earth. Examples of debris include non-operational satellites, rocket bodies, and fragments generated from explosions, collisions, or faulty payload assembly.

Loading next visibility...
Identifier
49482, 2002-032DL
Orbit
Decayed
Country
Flag of USUS
Related business
Manufacturer
Unknown
Mission
Decayed spacecraft
Bus & Motor
Unknown
Mass
Unknown
Launch date (UTC)
2002-06-24 (24 years ago)
Launch vehicle
Unknown
Launch site
Air Force Western Test Range (AFWTR)
Object type
Payload
Rocket body
Debris
Shape & HBR
Unknown shape, 0.1 m
Radar Cross Section
Small (<0.1 m²)

Expand to show TLE details & history
Last TLE update: 7 months ago

TLE from 7 months ago
0 NOAA 17 DEB
1 49482U 02032DL  25316.84610264  .00823029  00000-0  23686-1 0  9992
2 49482  98.7018 353.8429 0008041 203.5017 156.5855 15.33245165233320
Epoch: 2025-11-12T20:18Z
TLE epoch observation values (Epoch: 2025-11-12T20:18:23.268Z)
Latitude
0.00001°
Longitude
-2.9665°
Altitude
474.258 km
Speed
7.626 km/s
True Right ascension
23h 35m 22s
True Declination
0° 00' 00"
Sunlit
Object was in full shadow at epoch
Visualization orbit readout
Latitude
Unknown
Longitude
Unknown
Altitude
Unknown
Speed
Unknown
Apparent Right ascension
Unknown
Apparent Declination
Unknown
Sunlit
N/A
Visualization observer readout
Local Sidereal Time
23:18:44
Azimuth
Unknown
Elevation
Unknown
Doppler factor
Unknown
Orbital elements
Apogee altitude
468.648 km
Perigee altitude
457.645 km
Semi-major axis
6,841.284 km
Eccentricity
0.0008
Inclination
98.7018°
RAAN
353.8429°
Arg. of periapsis
203.5017°
True anomaly
156.62208°
Mean anomaly
156.5855°
Eccentric anomaly
156.60379°
Mean motion
3.83563 °/min
Orbital period
93.86 mins
BSTAR
0.023686
Loading maneuver chart data...
Computing Atmospheric mass density...

Documentation

Showing up to 5 results
|